Regional Weather Roundup
Issued by NWS Charleston, SC

Current Version | Previous Version | Text Only | Print | Product List | Glossary Off
Versions: 1 2 3 4 5 6 7 8 9 10 11 12 13 14 15 16 17 18 19 20 21 22 23 24 25 26 27 28 29 30 31 32 33 34 35 36 37 38 39 40 41 42 43 44 45 46 47 48 49 50

000
ASUS42 KCHS 051027
RWRCHS

REGIONAL WEATHER ROUNDUP
NATIONAL WEATHER SERVICE CHARLESTON SC
600 AM EDT TUE MAY 05 2015

NOTE: "FAIR" INDICATES FEW OR NO CLOUDS BELOW 12,000 FEET WITH NO
SIGNIFICANT WEATHER AND/OR OBSTRUCTIONS TO VISIBILITY.

NOT ALL STATIONS ARE QUALITY CONTROLLED BY THE NATIONAL
WEATHER SERVICE. USE DATA WITH CAUTION...ESPECIALLY
DEWPOINT OBSERVATIONS.

SCZ027-030-031-034>040-042>050-051100-
...SOUTHEAST SOUTH CAROLINA...

CITY           SKY/WX    TMP DP  RH WIND       PRES   REMARKS
N CHARLESTON   CLEAR     57  55  93 NE3       30.29S
WATERFRONT PRK   N/A     64 N/A N/A N6          N/A
MOUNT PLEASANT FAIR      55  55 100 MISG      30.29S
PINOPOLIS      NOT AVBL
MONCKS CORNER  FAIR      55  52  88 CALM      30.30R
SUMMERVILLE    FAIR      52  52 100 CALM      30.31R
BEAUFORT MCAS  CLEAR     60  57  89 NE6       30.27S
BEAUFORT ARPT  FAIR      61  61 100 CALM      30.27S
HILTON HEAD IS NOT AVBL
WALTERBORO     SUNNY     50  50 100 CALM      30.30R
ALLENDALE      FAIR      55  54  94 CALM      30.29R

...SOUTHERN MIDLANDS AND PEE DEE...

CITY           SKY/WX    TMP DP  RH WIND       PRES   REMARKS
GEORGETOWN     NOT AVBL
KINGSTREE      NOT AVBL
ORANGEBURG     CLEAR     54  51  90 NE3       30.30S
BARNWELL       FAIR      54  54 100 CALM      30.31R
AIKEN          FAIR      52  48  87 CALM      30.34R
MANNING        FAIR      50  41  71 CALM      30.31S
COLUMBIA       CLEAR     54  50  86 S3        30.31R
SUMTER         NOT AVBL
FLORENCE       CLEAR     54  51  90 CALM      30.32S
MYRTLE BEACH     N/A     57  54  88 N3        30.33S
N MYRTLE BEACH CLEAR     54  53  97 CALM      30.32R

$$

GAZ063-065-086>088-099>101-113>116-118-119-134>141-150-051100-
...SOUTHEAST GEORGIA...

CITY           SKY/WX    TMP DP  RH WIND       PRES   REMARKS
SAVANNAH ARPT  CLEAR     60  58  92 CALM      30.27S
HUNTER AAF     CLEAR     62  62  97 CALM      30.24S
FORT STEWART   CLEAR     59  57  93 CALM      30.24S
STATESBORO       N/A     53  53 100 CALM      30.28S
SYLVANIA       SUNNY     53  53 100 CALM      30.30R
CLAXTON        FAIR      52  52 100 CALM      30.28R

...CSRA...CENTRAL AND FAR SOUTHEAST GEORGIA...

CITY           SKY/WX    TMP DP  RH WIND       PRES   REMARKS
THOMSON        CLEAR     53  53 100 CALM      30.35R
AUGUSTA-BUSH   CLEAR     52  51  97 CALM      30.30S FOG
AUGUSTA-DANIEL CLEAR     62  54  74 E3        30.30S
SWAINSBORO     NOT AVBL
VIDALIA        CLEAR     59  57  94 E3        30.27S
EASTMAN        FAIR      53  53 100 CALM      30.30R FOG
HAZLEHURST     FAIR      60  60  99 E5        30.25S
ALMA           CLEAR     59  57  93 CALM      30.25R
WAYCROSS       CLEAR     59  59  98 CALM      30.24S
JESUP          FAIR      63  61  94 NE3       30.25S
BAXLEY         FAIR      61  59  94 CALM      30.25S
BRUNSWICK        N/A     59  59 100 CALM      30.25R
SAINT SIMONS   PTCLDY    66  60  81 NE7       30.23S

$$

SCZ027-028-034-036>038-045-046-048>050-GAZ119-141-051100-
...LAKE AND SUPPLEMENTAL COASTAL OBSERVATIONS...

STATION/POSITION TIME  TEMP    WIND        PRES    WAVE   SWELL
                       AIR SEA DIR/SP/G            HT/PER HT/PER/DIR
                 (UTC) (F)     (DEG/KT/KT) (MB)    (FT/S) (FT/S/D)
UPR LAKE MARION  NOT AVBL
WINYAH BAY       0900   57     310/  2     1025.0S
LAKE MURRAY      0900   65     160/  2/  4 1025.7S
ACE BASIN NERRS  NOT AVBL
FORT PULASKI     1000   69 69   50/  7/  9 1025.3R
SAPELO ISLAND    1000   64      50/  4     1024.0S

$$

ANZ835-935-AMZ111-154-330-350-352-354-370-450-454-472-051100-
...C-MAN AND BUOY OBSERVATIONS...

STATION/POSITION TIME  TEMP    WIND        PRES    WAVE   SWELL
                       AIR SEA DIR/SP/G            HT/PER HT/PER/DIR
                 (UTC) (F)     (DEG/KT/KT) (MB)    (FT/S) (FT/S/D)
BUOY 41004       0950   72 73   90/ 12/ 14 1024.9S   4/ 6   3/ 6
BUOY 41008       0950   70 70   60/ 10/ 14 1024.1R   4/ 6   3/110/ 6
FOLLY BEACH CMAN 1000   69      70/  8/ 10 1025.4S
CAPERS NEARSHORE 0908   70      80/  8/ 12 1025.5F
FRIPP NEARSHORE  0900   70      80/  8/ 12 1024.1F


STATION/POSITION TIME  TEMP    WIND        PRES    WAVE   SWELL
                       AIR SEA DIR/SP/G            HT/PER HT/PER/DIR
                 (UTC) (F)     (DEG/KT/KT) (MB)    (FT/S) (FT/S/D)
5E ST. MARYS GA  0921      73                N/A     4/ 6
FRYING PAN BUOY  0950   72 71  130/ 10/ 12 1027.2R   4/ 5   3/120/ 5
BUOY 41025       0950   72 76  190/ 10/ 14 1027.4R   3/10   2/ 80/10
CAPE LOOKOUT NC  1000   67     180/  3/  3 1027.0R
BUOY 41002       0950   69 70   80/ 14/ 17 1026.4R   4/ 8   3/ 60/ 8
BUOY 41010       0920   74 78   70/ 16/ 17 1021.4S
ST AUGUSTINE FL  1000   70 71   40/  7/  8 1022.7F


$$



USA.gov is the U.S. government's official web portal to all federal, state and local government web resources and services.